FLOCK 2K-20

Last updated on Wed Feb 14 2018 16:20:53 GMT+0000 (Coordinated Universal Time)

1 42885U 17042BN 18044.90094516 .00002080 00000-0 62224-4 0 9992 2 42885 96.9927 307.7886 0012374 179.0043 181.1228 15.35542158 32716
UTC large
Height (km)
Speed (km/s)
/
Latitude / Longitude
Inclination (degrees)
Orbital Period (minutes)
Azimuth
Elevation
Range (km)
Doppler Factor

Next 0 passes for location: London (51.5072 / 0.1276)

Sorry there are no passes over London.